This is the latest recevied weather packets stored in our database for station/object KC0QBU-13. If no packets are shown the sender has not sent any weather packets the latest 10 day(s).
| Time | Temp. | Humidity | Pressure | Rain* | Wind** | Luminosity | Snow |
|---|---|---|---|---|---|---|---|
| 1777481328 | 14.44° C | 58% | 1021.6 hPa | 0 mm | - | - | - |
| 1777481028 | 14.44° C | 58% | 1021.5 hPa | 0 mm | - | - | - |
| 1777480728 | 13.89° C | 59% | 1021.5 hPa | 0 mm | - | - | - |
| 1777480398 | 13.89° C | 59% | 1021.6 hPa | 0 mm | - | - | - |
| 1777480068 | 13.33° C | 59% | 1021.5 hPa | 0 mm | - | - | - |
| 1777479768 | 13.89° C | 58% | 1021.5 hPa | 0 mm | - | - | - |
| 1777479438 | 14.44° C | 58% | 1021.5 hPa | 0 mm | - | - | - |
| 1777479138 | 13.89° C | 63% | 1021.4 hPa | 0 mm | - | - | - |
| 1777478838 | 13.33° C | 61% | 1021.5 hPa | 0 mm | - | - | - |
| 1777478508 | 12.78° C | 62% | 1021.5 hPa | 0 mm | - | - | - |
| 1777478208 | 12.78° C | 61% | 1021.3 hPa | 0 mm | - | - | - |
| 1777477908 | 13.33° C | 62% | 1021.3 hPa | 0 mm | - | - | - |
| 1777477608 | 13.33° C | 63% | 1021.3 hPa | 0 mm | - | - | - |
| 1777477308 | 13.33° C | 63% | 1021.3 hPa | 0 mm | - | - | - |
| 1777476978 | 12.78° C | 64% | 1021.5 hPa | 0 mm | - | - | - |
| 1777476678 | 12.78° C | 63% | 1021.5 hPa | 0 mm | - | - | - |
| 1777476348 | 12.78° C | 65% | 1021.5 hPa | 0 mm | - | - | - |
| 1777476018 | 12.78° C | 64% | 1021.3 hPa | 0 mm | - | - | - |
| 1777475718 | 12.22° C | 67% | 1021.3 hPa | 0 mm | - | - | - |
| 1777475388 | 12.22° C | 67% | 1021.2 hPa | 0 mm | - | - | - |
| 1777475088 | 12.22° C | 67% | 1021.3 hPa | 0 mm | - | - | - |
| 1777474788 | 11.67° C | 67% | 1021.2 hPa | 0 mm | - | - | - |
| 1777474458 | 11.67° C | 69% | 1021.3 hPa | 0 mm | - | - | - |
| 1777474158 | 11.67° C | 69% | 1021.3 hPa | 0 mm | - | - | - |
| 1777473858 | 11.67° C | 70% | 1021.4 hPa | 0 mm | - | - | - |
* Rain latest hour (hover to see other rain measurements)
** Current wind speed in m/s (hover to see current wind gust speed)